SL-16 DEB, 22369

Orbit data source: Space-Track

SL-16 DEB, 22369 is space debris in LEO originally from a launch on Fri, 25 Dec 1992 UTC launched from the Tyuratam Missile And Space Complex (TTMTR). Debris objects in space refer to the collection of defunct objects orbiting the Earth. Examples of debris include non-operational satellites, rocket bodies, and fragments generated from explosions, collisions, or faulty payload assembly.

Loading next visibility...
Identifier
22369, 1992-093BJ
Orbit
LEO
Country
Flag of CISCIS
Related business
Manufacturer
Unknown
Mission
Spacecraft
Bus & Motor
Unknown
Mass
Unknown
Launch date (UTC)
1992-12-25 (33 years ago)
Launch vehicle
Unknown
Launch site
Tyuratam Missile And Space Complex (TTMTR)
Object type
Payload
Rocket body
Debris
Shape & HBR
Unknown shape, 0.3 m
Radar Cross Section
Medium (>0.1 m² and <1 m²)

Expand to show TLE details & history
Last TLE update: 11 hours ago

TLE from 11 hours ago
0 SL-16 DEB
1 22369U 92093BJ  25352.82404115 -.00000005  00000-0  29876-4 0  9999
2 22369  70.8851 135.1196 0102461 243.4387 115.6194 13.94437630676741
Epoch: 2025-12-18T19:46Z
TLE epoch observation values (Epoch: 2025-12-18T19:46:37.155Z)
Latitude
-0.00004°
Longitude
110.79076°
Altitude
948.415 km
Speed
7.361 km/s
True Right ascension
09h 00m 28s
True Declination
0° 00' 00"
Sunlit
Object was in full shadow at epoch
Visualization orbit readout
Latitude
Unknown
Longitude
Unknown
Altitude
Unknown
Speed
Unknown
Apparent Right ascension
Unknown
Apparent Declination
Unknown
Sunlit
N/A
Visualization observer readout
Local Sidereal Time
05:55:09
Azimuth
Unknown
Elevation
Unknown
Doppler factor
Unknown
Orbital elements
Apogee altitude
985.763 km
Perigee altitude
836.391 km
Semi-major axis
7,289.214 km
Eccentricity
0.01025
Inclination
70.8851°
RAAN
135.1196°
Arg. of periapsis
243.4387°
True anomaly
116.67219°
Mean anomaly
115.6194°
Eccentric anomaly
116.14639°
Mean motion
3.48756 °/min
Orbital period
103.22 mins
BSTAR
0.000029876
Loading maneuver chart data...
Computing Atmospheric mass density...
Loading historical data...
Loading historical data...
Loading historical data...
Loading historical data...
Loading historical data...
Loading historical data...
Loading historical data...

Documentation

Showing up to 5 results
|